FENGYUN 1C DEB

Satellite information

Favourite Embed

Satellite Type and Status

DEBRISIN ORBIT

Key statistics

Satellite FENGYUN 1C DEB at a glance.

Uptime

9555

Days in orbit

Revolutions

≈ 14.0

Per day

Orbit

SSO

Sun Synchronous Orbit

Inclination

99.3

Latest

Satellite identification and parameters

Extended collection of information and parameters for FENGYUN 1C DEB.

Object identification

Identified? True

Debris? True

Object name: FENGYUN 1C DEB

International designator: 1999-025CQ

Object number (NORAD): 29798

Object ID (CCSDS): 29798

Country: PEOPLES REPUBLIC OF CHINA (PRC)

Current information (Y/N): Y

RCS size: SMALL

Orbital parameters

Period: 102.941 minutes

Inclination: 99.3065 deg

SMA: 7275.906 km

Apoapsis: 979.098 km

Periapsis: 816.444 km

RAAN: 248.5995 deg

Eccentricy: 0.0111776

Argument of periapsis: 350.7501 deg

Mean anomaly: 37.5158 deg

Mean motion: 13.98853295 rev/day

Mean motion (dot): 0.00000755 rev/day2

B* drag term: 0.00052706 1/REarth

Two-line elements (TLE)

Creation date: July 6, 2025, 6:05 p.m.

Reference frame: TEME

Reference center: EARTH

Epoch: July 6, 2025, 3:10 a.m. UTC

TLE line 0: 0 FENGYUN 1C DEB

TLE line 1: 1 29798U 99025CQ 25187.13246043 .00000755 00000-0 52706-3 0 9996

TLE line 2: 2 29798 99.3065 248.5995 0111776 350.7501 37.5158 13.98853295936937

Live tracking on map

Real-time ground track for satellite FENGYUN 1C DEB.

In-orbit conjunctions

A list of the most updated potential collisions computed for object FENGYUN 1C DEB.

Target Orbit TCA Probability of collision Miss distance Type
CZ-6A DEB LEO 2025-04-25 18:56:38 0.0001118305 167.0 (m) DEBRIS
CZ-6A DEB SSO 2024-09-25 22:49:26 0.000852285 337.0 (m) DEBRIS

Associated space launch

Chinese polar orbiting meteorological satellite

FENGYUN 1C DEB was lifted into orbit during the mission ‘Long March 4B | Feng Yun 1C’, on board a Long March 4B space rocket.

The launch took place on May 10, 1999, 1:33 a.m. from Launch Complex 7.

For more information about the launch, click the button.

Launch to space Long March 4B | Feng Yun 1C
Long March 4B | Feng Yun 1C

Agency: N/A

Status: Launch Successful

Launch date: May 10, 1999, 1:33 a.m. UTC

Rocket: Long March 4B

Launch pad: Launch Complex 7

Location: Taiyuan Satellite Launch Center, People's Republic of China

...

Latest news about this satellite

There are no fresh news available about this satellite. Check back as we update our databases every day.


Newsletter sign-up

Weekly statistics, charts and insights to help you stay on top of the space industry.